Wind_Speed
36 37 38 39 40 41 42 43 44 44 45 46 46 46 46 47 47 47 47 46 46 46 46 45 46 46 47 47 47 47 47 47 46 45 45 45 44 44 44 44 44 44 44
36 37 38 39 40 42 43 43 44 45 45 46 46 47 47 47 48 49 49 48 48 48 49 49 48 48 48 48 48 48 49 49 49 48 47 47 47 46 46 46 47 47 47
35 37 38 40 41 42 43 44 45 45 46 46 47 47 48 49 49 49 50 50 50 50 50 50 50 50 50 50 50 50 50 51 51 50 50 49 49 49 48 48 48 49 49
36 37 38 40 41 42 43 44 45 46 46 47 47 47 48 49 49 49 49 50 51 51 52 52 51 51 51 51 52 52 52 52 52 51 51 51 51 51 50 50 50 50 50
37 38 38 39 40 42 43 43 43 44 45 46 46 47 47 48 48 49 49 51 52 52 53 54 54 53 53 53 53 54 53 53 54 53 52 52 53 53 53 52 51 51 51
38 39 39 40 41 42 43 43 44 45 45 46 46 47 48 48 48 49 50 51 51 52 53 54 55 55 55 55 54 54 54 55 55 55 54 54 54 54 54 53 53 53 52
37 38 39 40 41 42 42 43 44 45 46 46 46 47 48 48 48 49 50 51 51 52 53 54 54 55 56 56 56 56 56 56 56 57 57 57 56 56 56 56 56 55 54
37 38 39 40 41 42 42 43 44 45 46 46 47 47 48 49 49 50 51 51 52 53 53 54 54 55 56 57 57 57 57 57 57 57 58 58 58 58 58 58 58 57 56
38 39 40 41 41 42 43 44 44 45 46 46 47 48 48 49 49 50 51 51 52 52 52 53 54 55 56 57 58 58 57 58 59 59 59 60 60 60 60 59 58 58 58
37 38 39 41 42 43 43 44 45 45 46 47 47 48 48 49 49 50 51 52 52 53 54 54 55 56 56 57 57 58 58 59 59 60 60 60 60 60 59 59 59 59 59
38 38 39 41 42 43 43 44 45 45 46 46 47 48 49 50 50 50 50 52 53 54 55 56 56 57 57 58 58 59 59 59 59 59 59 59 59 59 59 59 59 59 60
39 39 39 40 41 42 43 44 44 45 46 46 47 48 48 49 50 51 51 52 53 54 55 55 55 56 57 58 59 59 59 59 59 59 60 60 60 59 59 59 59 59 60
38 39 39 40 41 42 43 43 44 45 46 47 48 48 49 49 50 50 51 53 53 54 55 55 55 56 57 57 57 58 59 59 59 59 60 61 60 60 60 59 59 59 60
39 40 40 41 41 42 43 44 44 45 46 47 48 48 48 49 50 50 51 52 53 54 55 55 55 56 56 56 56 57 58 59 59 59 59 60 60 60 60 60 59 59 60
40 41 42 42 42 43 43 44 44 45 46 46 47 48 48 49 50 51 51 52 53 53 54 54 54 55 55 55 55 55 56 57 58 58 58 58 59 60 61 60 60 60 60
41 41 42 42 43 43 44 44 45 46 46 46 47 47 48 49 50 50 51 52 53 53 54 54 54 53 54 55 56 56 56 57 57 58 58 58 58 59 60 60 60 60 61
40 41 41 42 43 43 44 44 45 45 46 46 47 47 47 48 49 49 50 51 52 53 53 53 54 54 54 55 56 56 57 56 57 58 58 58 58 60 60 60 60 61 61
41 41 42 42 43 43 44 44 44 45 45 45 45 46 46 47 47 48 49 50 51 52 52 53 54 54 53 54 54 56 57 56 57 58 58 58 59 60 60 61 61 61 61
43 43 43 43 43 43 43 44 44 44 45 45 46 46 46 46 47 48 48 49 50 52 52 52 52 53 54 55 54 55 56 56 56 57 59 59 60 60 61 61 61 61 61
43 43 43 43 43 43 43 43 44 44 45 45 46 46 46 46 47 48 48 49 49 51 52 52 52 52 53 54 55 55 56 56 56 57 57 58 59 60 62 62 61 61 61
43 43 43 43 43 43 44 44 44 45 45 46 46 46 46 46 47 47 48 48 49 50 51 52 52 51 52 53 55 55 55 56 56 57 57 57 57 58 60 61 62 62 62
42 43 43 44 44 45 45 45 45 45 46 46 46 47 47 47 47 48 48 48 48 49 50 51 51 51 51 52 53 54 54 55 56 57 57 57 58 58 59 59 60 60 61
42 43 43 43 44 45 45 45 45 46 46 47 47 47 47 47 47 47 48 48 49 49 50 51 51 52 51 51 52 52 53 54 55 55 56 57 57 58 58 58 58 58 59
42 43 43 43 44 44 45 45 46 47 47 47 47 47 47 47 48 48 48 49 49 50 50 51 51 52 52 52 51 52 53 54 54 55 55 56 56 56 57 56 56 57 57
41 41 42 42 43 44 45 46 46 47 47 47 47 47 47 47 48 48 48 49 49 49 50 50 51 52 53 53 53 53 53 53 54 54 55 55 54 54 55 55 55 55 55
41 41 42 42 43 44 45 46 46 46 46 46 46 46 46 46 47 47 48 48 48 49 50 50 51 52 52 53 54 54 54 53 53 53 53 52 52 53 53 53 53 53 53
Wind_Direction
256 256 255 255 256 256 257 257 257 257 256 256 256 256 255 256 256 256 256 255 254 254 254 255 254 254 254 255 255 255 256 256 256 257 257 258 258 259 260 261 260 260 260
258 256 256 256 257 258 258 259 259 258 258 257 257 257 257 256 257 257 257 256 256 255 255 255 255 255 255 255 255 256 256 256 256 257 258 259 259 260 261 261 260 260 261
260 258 257 258 258 259 259 259 259 259 259 259 259 260 259 258 258 258 258 258 258 257 256 256 255 255 256 255 256 256 257 256 257 257 258 259 260 259 260 261 261 261 262
261 262 261 261 261 261 261 261 260 259 259 259 260 260 259 259 258 258 257 257 258 258 257 257 256 255 255 256 256 256 257 258 258 258 258 260 260 260 259 260 261 261 261
264 265 264 263 262 262 262 261 261 260 259 259 260 260 260 259 259 258 258 258 258 258 258 258 257 256 256 256 257 256 257 258 258 259 259 260 261 261 260 260 261 260 261
267 267 266 265 263 263 262 261 261 260 260 261 261 260 260 260 259 259 259 259 259 258 258 258 258 258 257 257 257 258 257 258 259 259 260 260 261 262 261 261 261 261 260
269 267 266 265 265 264 263 263 262 262 262 262 262 262 261 261 260 260 260 260 260 260 260 259 258 258 258 258 258 258 258 259 260 260 260 260 260 262 262 261 261 261 260
268 268 267 267 267 266 265 264 263 262 262 263 263 263 262 262 261 261 261 261 261 261 260 259 259 258 258 258 259 259 260 260 260 261 261 261 262 262 261 262 261 260 260
269 269 268 268 268 268 267 266 265 263 263 263 264 263 263 263 262 262 261 260 260 260 261 260 259 259 259 259 259 259 260 261 261 262 262 262 262 262 262 262 262 260 260
272 271 269 269 269 269 269 269 267 266 264 264 264 264 264 263 263 262 262 262 261 261 262 262 261 260 260 260 260 260 260 261 262 262 263 263 263 263 263 264 263 262 262
274 273 272 270 270 270 269 269 269 268 267 266 266 265 265 265 264 263 263 263 263 262 262 262 262 261 261 261 261 260 260 261 262 262 263 263 264 264 263 264 264 263 262
275 274 273 272 271 270 270 270 269 269 268 268 267 267 266 266 265 265 265 264 263 263 263 261 261 261 261 262 261 262 261 262 262 262 262 262 263 263 263 264 264 263 263
276 276 275 274 273 272 271 271 270 270 270 270 269 268 267 266 265 266 266 265 264 264 263 261 261 262 262 262 262 262 262 262 262 262 262 261 261 262 262 263 263 263 263
277 277 277 276 274 274 273 272 272 272 272 271 271 269 268 266 265 265 266 266 266 265 264 263 262 263 262 262 262 262 262 262 261 261 262 262 262 262 262 263 263 263 263
276 277 278 278 276 275 275 274 273 273 273 273 272 270 269 268 267 266 266 266 266 266 265 264 263 263 262 262 262 262 263 262 262 262 262 262 262 263 264 264 264 264 264
278 278 279 278 278 277 277 275 275 274 274 273 272 271 269 268 268 267 267 267 266 266 265 264 263 263 263 262 262 263 263 262 262 262 262 263 263 264 264 263 264 264 264
280 280 280 279 279 279 278 276 275 274 274 273 272 271 270 269 269 268 268 267 266 266 266 265 264 264 265 264 264 263 263 263 262 262 262 262 263 264 264 264 264 264 265
281 282 281 281 281 279 278 277 276 275 274 273 272 271 271 271 270 270 270 269 268 267 266 265 264 265 265 266 265 264 263 263 263 262 261 262 262 263 264 264 265 264 264
282 282 281 282 281 280 279 277 276 275 275 274 273 272 272 272 272 272 272 271 270 268 266 265 265 265 265 265 266 265 264 264 264 264 263 263 263 263 264 264 264 264 264
283 282 282 282 281 280 279 278 277 276 275 275 274 273 273 274 274 274 273 272 271 270 268 267 267 266 266 265 266 266 266 265 265 264 264 264 263 264 264 264 264 264 265
284 284 283 282 281 281 280 279 278 277 277 276 275 274 273 274 274 274 274 273 272 271 269 268 268 268 267 266 266 265 265 265 265 264 264 264 264 264 265 266 265 266 265
285 285 284 283 282 281 281 280 279 278 277 277 276 275 274 274 274 274 275 275 274 272 271 270 269 268 268 267 266 266 266 266 265 265 265 265 265 265 266 267 267 266 265
286 286 285 284 283 282 281 280 279 279 279 277 277 275 275 275 274 274 275 275 275 274 273 271 270 269 268 267 266 266 266 266 266 266 266 266 266 266 267 267 266 266 265
288 287 286 285 284 283 282 281 280 280 279 278 277 275 274 274 274 275 275 276 276 275 274 273 271 269 268 268 268 268 267 267 267 267 267 267 267 266 266 266 266 266 266
290 289 288 286 286 285 284 283 282 281 279 278 277 275 274 274 274 275 276 276 276 276 276 275 274 272 270 269 269 269 269 268 268 269 269 268 266 266 266 266 265 265 265
290 290 289 289 288 288 286 285 284 282 280 278 277 275 275 275 275 276 277 277 277 277 278 277 276 275 273 271 270 270 270 269 270 269 268 267 266 266 265 266 266 265 265
Height
5697 5698 5699 5700 5701 5702 5704 5705 5706 5707 5708 5710 5711 5712 5714 5715 5716 5718 5719 5721 5723 5725 5727 5729 5731 5734 5736 5738 5740 5743 5745 5747 5749 5751 5752 5753 5755 5757 5758 5760 5761 5762 5764
5687 5688 5689 5690 5691 5692 5693 5694 5695 5696 5697 5698 5699 5701 5702 5703 5705 5706 5707 5709 5711 5713 5715 5717 5720 5722 5724 5727 5729 5731 5733 5735 5738 5739 5741 5743 5745 5746 5747 5749 5750 5751 5752
5677 5678 5679 5680 5680 5681 5682 5683 5684 5685 5685 5686 5687 5689 5690 5691 5693 5694 5695 5697 5698 5700 5702 5704 5707 5710 5712 5714 5717 5719 5721 5723 5725 5727 5729 5731 5733 5734 5736 5737 5738 5739 5740
5667 5667 5668 5669 5669 5670 5670 5671 5672 5672 5673 5674 5675 5676 5677 5679 5681 5682 5682 5684 5686 5687 5689 5691 5694 5696 5699 5701 5704 5706 5708 5710 5712 5714 5716 5718 5720 5721 5724 5725 5726 5727 5728
5656 5656 5657 5657 5658 5658 5659 5659 5659 5660 5661 5662 5663 5664 5665 5666 5668 5669 5670 5671 5673 5674 5676 5678 5680 5683 5685 5688 5690 5692 5694 5696 5698 5700 5702 5703 5705 5707 5709 5712 5713 5714 5715
5645 5645 5645 5646 5646 5647 5647 5647 5648 5648 5649 5649 5650 5651 5652 5654 5655 5656 5657 5658 5659 5661 5662 5664 5666 5669 5671 5674 5676 5678 5680 5682 5684 5686 5687 5689 5691 5693 5695 5697 5699 5700 5702
5634 5634 5634 5634 5635 5635 5635 5636 5636 5637 5637 5637 5638 5639 5639 5640 5642 5643 5644 5645 5646 5648 5649 5651 5652 5655 5657 5659 5661 5663 5665 5667 5669 5671 5672 5674 5676 5678 5680 5681 5683 5685 5687
5624 5623 5623 5623 5623 5623 5624 5624 5624 5624 5625 5625 5626 5626 5626 5627 5628 5630 5631 5632 5633 5635 5636 5637 5638 5640 5642 5644 5646 5648 5650 5652 5654 5655 5657 5659 5660 5662 5664 5665 5667 5669 5672
5612 5612 5612 5612 5612 5612 5612 5612 5612 5612 5612 5613 5613 5613 5614 5614 5615 5616 5617 5618 5620 5621 5621 5622 5624 5626 5628 5629 5631 5633 5635 5637 5638 5640 5641 5643 5644 5646 5648 5649 5651 5653 5655
5601 5600 5600 5600 5600 5600 5600 5600 5600 5600 5600 5600 5600 5600 5601 5601 5602 5602 5603 5604 5605 5606 5607 5608 5610 5611 5613 5614 5616 5618 5620 5621 5623 5624 5625 5627 5628 5630 5631 5633 5635 5637 5639
5590 5589 5589 5589 5588 5588 5587 5587 5587 5587 5587 5587 5587 5587 5587 5588 5588 5589 5589 5590 5591 5591 5592 5593 5595 5596 5597 5599 5601 5602 5604 5605 5607 5608 5609 5611 5612 5613 5615 5616 5618 5620 5622
5578 5578 5577 5577 5576 5576 5575 5575 5575 5574 5574 5574 5574 5574 5574 5574 5575 5575 5575 5576 5576 5577 5577 5578 5579 5581 5582 5583 5585 5586 5587 5589 5590 5592 5593 5595 5596 5597 5598 5600 5601 5603 5605
5568 5566 5566 5565 5564 5563 5563 5562 5562 5561 5561 5561 5560 5560 5560 5560 5560 5561 5561 5561 5562 5562 5562 5563 5564 5565 5567 5568 5569 5570 5571 5573 5574 5575 5577 5578 5580 5581 5582 5584 5585 5587 5588
5557 5556 5555 5553 5552 5551 5550 5549 5549 5548 5547 5547 5546 5546 5546 5546 5546 5546 5546 5546 5546 5547 5547 5548 5549 5550 5551 5552 5553 5554 5555 5556 5558 5559 5560 5562 5563 5565 5566 5567 5569 5570 5571
5546 5544 5543 5541 5540 5539 5537 5536 5535 5534 5533 5533 5533 5532 5532 5532 5532 5532 5532 5531 5531 5531 5532 5533 5533 5534 5535 5536 5537 5538 5539 5540 5542 5543 5544 5546 5547 5549 5550 5551 5552 5553 5554
5534 5532 5531 5529 5527 5526 5525 5523 5522 5521 5520 5519 5519 5518 5517 5517 5517 5517 5517 5516 5516 5516 5517 5517 5518 5518 5519 5520 5521 5522 5523 5524 5525 5527 5528 5529 5531 5532 5533 5534 5535 5536 5538
5522 5520 5519 5517 5515 5513 5511 5510 5509 5507 5506 5505 5505 5504 5504 5503 5502 5502 5502 5501 5501 5501 5502 5502 5503 5503 5504 5504 5505 5505 5507 5508 5509 5510 5511 5513 5514 5514 5515 5516 5518 5519 5520
5510 5508 5506 5504 5502 5500 5498 5497 5495 5494 5493 5492 5491 5490 5490 5489 5488 5488 5487 5487 5486 5486 5487 5487 5487 5488 5488 5488 5489 5489 5490 5491 5492 5493 5494 5495 5496 5497 5498 5499 5500 5501 5503
5498 5496 5493 5491 5489 5487 5485 5483 5482 5481 5480 5478 5477 5477 5476 5476 5475 5474 5473 5472 5472 5471 5472 5472 5472 5472 5472 5472 5472 5473 5473 5475 5476 5477 5477 5478 5479 5479 5480 5481 5483 5484 5485
5485 5483 5480 5478 5476 5474 5472 5470 5469 5467 5466 5465 5464 5463 5462 5461 5461 5460 5459 5458 5457 5456 5456 5456 5456 5456 5456 5456 5456 5456 5457 5459 5460 5460 5460 5461 5461 5461 5460 5462 5464 5466 5467
5472 5470 5468 5465 5463 5461 5459 5457 5455 5454 5453 5451 5450 5449 5448 5447 5446 5445 5444 5443 5442 5441 5441 5441 5441 5440 5440 5440 5439 5439 5440 5441 5442 5442 5443 5443 5443 5443 5443 5444 5446 5447 5448
5460 5457 5455 5452 5450 5447 5446 5444 5442 5440 5439 5437 5436 5434 5433 5433 5432 5431 5429 5428 5427 5426 5425 5425 5424 5424 5423 5423 5422 5422 5422 5423 5424 5425 5425 5425 5425 5425 5426 5426 5427 5428 5429
5448 5445 5442 5440 5437 5434 5432 5430 5428 5426 5424 5422 5421 5420 5419 5418 5417 5416 5414 5413 5411 5410 5409 5408 5408 5408 5407 5406 5406 5405 5405 5406 5407 5407 5408 5408 5408 5408 5408 5409 5409 5409 5410
5435 5432 5429 5427 5424 5421 5418 5416 5414 5412 5409 5407 5406 5404 5403 5402 5401 5400 5399 5398 5396 5394 5393 5392 5392 5391 5390 5390 5389 5389 5389 5389 5389 5390 5390 5391 5391 5391 5391 5391 5391 5392 5393
5423 5420 5417 5414 5411 5408 5405 5402 5399 5397 5395 5393 5391 5389 5388 5387 5386 5385 5384 5382 5381 5379 5378 5377 5376 5376 5375 5374 5373 5372 5372 5372 5372 5372 5373 5373 5373 5374 5374 5374 5374 5375 5375
5411 5408 5405 5401 5398 5394 5391 5388 5385 5382 5380 5378 5376 5374 5373 5372 5371 5370 5369 5366 5365 5364 5362 5361 5360 5359 5358 5357 5356 5355 5355 5354 5355 5355 5355 5356 5356 5356 5357 5357 5357 5358 5359